Tracking 30923 objects as of 1-Jul-2025
HD Live streaming from Space Station
objects crossing your sky now

DIAMANT B-P4 DEB

Track DIAMANT B-P4 DEB now!
10-day predictions


NORAD ID: 7654
Int'l Code: 1975-010C
Perigee: 790.4 km
Apogee: 1,041.9 km
Inclination: 49.8 °
Period: 103.2 minutes
Semi major axis: 7287 km
RCS: 0.0394 m2 (small)
Launch date: February 6, 1975
Source: France (FR)
Launch site: FRENCH GUIANA (FRGUI)

Note: This is SATELLITE DEBRIS
Your satellite tracking list
FLOCK 1C 6
Track 1 satellite(s)




NASA's NSSDC Master Catalog

Two Line Element Set (TLE):
1 07654U 75010C   25181.19108337  .00000066  00000-0  13802-3 0  9993
2 07654  49.8435 164.6143 0172545 349.1445  10.5751 13.95608624560796
Source of the keplerian elements: AFSPC